User: anonymous   Login
Location: Newark
(44.3248°N, 23.7839°E)
Time: 19:03:25
(UTC+00:00)
Language:

DIWATA 2B (PO-101) - Orbit

View from above orbital plane
View from above orbital plane
View from above satellite
View from above satellite

Ground track
Ground track

The orbit data is extracted from the following two-line orbital elements,

1 43678U 18084H   24113.39298334  .00005684  00000-0  52547-3 0  9990
2 43678  98.0648 269.7822 0008435 207.3440 152.7336 14.94961996298588
Epoch (UTC): 22 April 2024 09:25:53
Eccentricity: 0.0008435
inclination: 98.0648°
perigee height: 576 km
apogee height: 588 km
right ascension of ascending node: 269.7822°
argument of perigee: 207.3440°
revolutions per day: 14.94961996
mean anomaly at epoch: 152.7336°
orbit number at epoch: 29858

The dashed part of the orbit path shows where the satellite is in the earth's shadow,  

DLR